Regional Weather Roundup
Issued by NWS

Home | Current Version | Previous Version | Graphics & Text | Print | Product List | Glossary On
Versions: 1 2 3 4 5 6 7 8 9 10 11 12 13 14 15 16 17 18 19 20 21 22 23 24 25 26 27 28 29 30 31 32 33 34 35 36 37 38 39 40 41 42 43 44 45 46 47 48 49 50
000
ASUS44 KMEG 290010
RWRTN
TENNESSEE HOURLY STATE WEATHER ROUNDUP
NATIONAL WEATHER SERVICE MEMPHIS TN
700 PM CDT SUN MAY 28 2017

TNZ002-004-019-021-049-052-054-088>092-290100-
WEST TENNESSEE

CITY           SKY/WX    TMP DP  RH WIND       PRES   REMARKS
MEMPHIS INTL   PTSUNNY   78  69  73 W6        29.92S
NWS MEMPHIS      N/A     78 N/A N/A MISG        N/A
JACKSON        CLOUDY    76  67  73 W6        29.91F
DYERSBURG        N/A    N/A N/A N/A MISG        N/A
SOMERVILLE     MOSUNNY   77  68  73 CALM      29.91F
COVINGTON      SUNNY     77  66  69 W6        29.91S
UNION CITY     MOSUNNY   73  66  78 SW7       29.89S
BOLIVAR        MOSUNNY   75  66  73 W5        29.91F
PARIS          SUNNY     72  64  78 W8        29.90S
HUNTINGDON     MOSUNNY   73  64  73 VRB5      29.89F
LEXINGTON      CLOUDY    75  64  69 MISG      29.91S
SELMER         CLOUDY    73  66  78 CALM      29.91F
SAVANNAH       CLOUDY    77  64  65 VRB5      29.91F
$$

TNZ008-025-027-028-033-062-065-066-290100-
NORTH MIDDLE TENNESSEE

CITY           SKY/WX    TMP DP  RH WIND       PRES   REMARKS
NASHVILLE      CLOUDY    77  62  59 W6        29.91S
PORTLAND       CLEAR     73  63  68 W8G15     29.90R
CLARKSVILLE    MOSUNNY   74  62  66 W7        29.90R
SMYRNA         PTCLDY    77  64  64 W6        29.91S
COOKEVILLE     CLOUDY    75  64  69 CALM      29.91S
GALLATIN       MOCLDY    75  64  69 VRB3      29.92S
CROSSVILLE     MOCLDY    70  60  70 W6        29.97R
$$

TNZ061-075-076-078-094-096-097-290100-
SOUTH MIDDLE TENNESSEE

CITY           SKY/WX    TMP DP  RH WIND       PRES   REMARKS
FAYETTEVILLE   CLEAR     77  64  65 W5        29.91F
TULLAHOMA      CLEAR     77  63  61 SW3       29.93F
WINCHESTER     CLEAR     77  64  65 W3          N/A
MCMINNVILLE    CLEAR     75  64  69 W5        29.92F
COLUMBIA       CLOUDY    77  64  65 W5        29.90R
SHELBYVILLE    CLEAR     77  64  65 W5        29.91S
$$

TNZ017-018-042-046-047-290100-
NORTHEAST TENNESSEE

CITY           SKY/WX    TMP DP  RH WIND       PRES   REMARKS
TRI CITIES     MOCLDY    72  63  73 SW7       29.91S
ELIZABETHTON   MOCLDY    72  63  73 W6        29.91S
$$

TNZ012-013-036-069-073-074-290100-
CENTRAL EAST TENNESSEE

CITY           SKY/WX    TMP DP  RH WIND       PRES   REMARKS
KNOXVILLE      MOCLDY    75  64  68 SW12      29.90S
OAK RIDGE      CLEAR     77  63  61 VRB5      29.91S
DOWNTOWN KNOXV PTCLDY    77  66  69 W5        29.90S
GATLINBURG     CLEAR     75  61  60 SW6       29.90S
MORRISTOWN     CLEAR     75  64  69 W8        29.91R
JACKSBORO      PTCLDY    75  63  64 CALM      29.93S
$$

TNZ083-085-099-290100-
SOUTHEAST TENNESSEE

CITY           SKY/WX    TMP DP  RH WIND       PRES   REMARKS
CHATTANOOGA    MOCLDY    79  61  53 NW5       29.92S
$$

SKY/WX REPORTED AS FAIR MEANS FEW OR NO CLOUDS BELOW
12 THOUSAND FEET.




USA.gov is the U.S. government's official web portal to all federal, state and local government web resources and services.